Wind_Speed
15 14 12 12 13 14 16 16 14 11 10 12 12 14 17 20 22 22 24 25 25 26 28 28 29 30 30 29 29 27 27 27 28 28 29 29 28 28 28 26 25 25 22 22
14 13 14 14 14 16 16 14 12 11 13 14 16 19 21 22 24 26 26 26 26 28 28 30 30 31 31 31 28 27 28 28 29 29 30 30 29 26 26 25 24 23 22 22
15 16 17 16 14 14 12 13 12 13 16 20 22 24 25 26 26 27 27 27 28 28 28 29 30 31 32 32 30 29 29 29 28 30 30 32 31 26 24 24 24 22 21 22
17 19 18 16 12 11 12 12 13 16 18 21 24 27 27 27 27 28 27 27 27 29 29 30 30 31 31 31 31 30 30 29 29 30 31 31 30 29 26 23 22 22 21 20
18 19 18 15 13 13 12 13 14 15 18 20 22 25 25 26 26 27 28 29 29 29 28 28 29 30 30 30 30 29 29 29 28 28 29 29 29 29 28 24 21 20 20 19
17 18 17 14 12 13 14 15 16 17 18 19 18 21 22 22 24 26 27 28 28 28 27 27 27 27 28 27 27 27 27 28 29 28 27 27 27 27 27 25 22 20 19 18
17 17 16 14 13 13 14 16 16 16 17 17 17 20 20 20 22 24 25 25 25 25 25 25 25 25 24 25 25 25 26 26 27 26 26 27 27 26 26 26 24 22 21 20
16 15 14 14 13 13 13 14 16 17 17 17 17 19 19 19 21 22 21 21 21 21 22 22 22 23 23 23 23 24 24 24 24 24 24 25 25 25 25 26 25 23 22 22
17 16 15 14 13 13 14 15 15 17 18 18 18 18 18 19 21 20 19 18 18 18 18 20 21 22 22 21 21 22 23 23 23 24 24 24 22 22 23 25 24 22 21 21
17 16 14 13 13 13 13 14 15 16 18 19 18 18 18 18 19 19 16 14 14 15 16 18 19 20 20 19 19 20 21 22 22 23 23 23 23 23 22 23 24 23 22 22
17 15 14 13 13 13 14 15 16 17 18 19 20 18 17 18 18 17 15 14 14 14 14 16 18 19 19 18 18 18 19 20 21 21 22 22 22 22 22 22 23 23 23 22
16 15 14 14 13 13 15 17 17 17 17 18 19 19 17 18 18 16 14 15 15 13 13 15 17 18 18 18 18 17 17 18 19 20 20 21 21 21 21 21 22 22 22 21
15 15 14 13 13 13 15 16 17 16 16 18 18 18 18 17 16 15 16 15 14 13 13 15 16 17 17 18 18 18 18 18 18 18 19 19 20 20 20 21 21 20 20 21
15 14 14 13 14 14 15 15 16 16 16 16 17 17 17 16 16 17 16 15 14 14 15 15 16 17 17 17 17 18 18 17 18 17 17 18 18 19 20 20 21 21 21 21
15 15 13 13 13 14 15 14 14 14 15 16 16 16 16 16 16 16 16 15 15 15 16 17 17 17 18 18 18 18 17 17 17 17 17 17 18 18 19 20 20 20 21 21
15 14 14 13 14 14 13 12 12 13 14 15 15 15 16 17 17 17 16 16 16 16 16 17 17 17 18 18 18 18 18 17 17 17 17 17 17 18 18 19 19 20 20 20
14 14 14 13 12 12 12 11 12 13 13 14 14 16 17 18 18 18 17 17 16 17 17 17 18 18 18 18 17 17 17 17 17 17 18 18 17 17 18 18 18 17 17 18
14 13 13 12 11 11 10 11 11 13 13 13 15 16 17 18 18 18 18 17 17 17 17 17 16 16 16 16 15 15 16 16 15 16 16 16 16 16 16 16 16 16 16 17
14 14 13 12 11 10 9 10 11 12 13 13 15 17 18 18 17 17 16 16 16 16 16 15 14 14 14 13 13 13 13 13 13 13 13 13 13 14 14 14 14 15 16 17
14 13 11 10 10 9 8 10 10 11 12 14 15 16 17 16 15 15 15 15 15 15 13 11 11 10 10 10 10 10 9 9 10 10 11 11 11 11 12 13 14 15 15 16
13 11 10 10 9 7 8 9 10 11 12 14 15 15 16 15 14 14 14 14 14 12 9 8 8 8 7 7 7 6 6 6 6 7 7 8 8 9 10 11 11 13 14 14
13 12 11 9 8 6 7 7 9 11 12 13 14 14 14 14 14 13 13 13 11 8 7 6 5 5 5 5 5 5 4 4 4 4 5 5 5 6 6 7 8 9 10 11
12 11 9 7 5 4 5 7 9 10 11 12 13 13 13 13 13 12 12 11 8 6 5 3 3 3 3 4 4 4 3 3 3 3 3 3 4 4 5 6 7 7 8 9
10 8 7 6 4 3 5 6 8 10 11 12 12 12 12 11 11 11 10 9 7 6 4 2 1 2 2 3 3 2 3 2 2 2 2 2 2 3 3 4 5 5 5 6
9 7 5 4 3 2 3 5 7 9 11 11 11 11 11 11 11 10 10 8 7 6 4 2 0 2 2 2 2 2 2 2 2 2 2 1 1 1 2 2 2 2 3 3
8 6 5 4 2 0 2 4 6 9 10 10 10 11 11 11 11 11 10 9 8 6 5 3 2 3 2 2 3 2 2 2 2 2 2 1 1 1 2 2 2 1 1 1
Wind_Direction
218 214 210 211 211 211 218 222 225 232 252 260 265 270 271 273 276 277 275 274 271 276 278 276 274 271 272 272 270 267 264 261 261 259 260 257 256 255 253 247 250 249 248 245
212 206 205 210 216 220 225 233 240 240 244 252 256 262 265 268 273 275 275 277 276 277 276 277 275 272 272 273 272 267 265 263 262 260 258 259 259 256 252 249 249 249 246 246
204 201 205 211 218 227 237 251 248 243 243 245 251 257 262 266 267 269 272 275 275 275 273 275 277 275 274 274 273 272 268 264 262 261 259 260 261 258 256 250 247 249 248 244
204 207 209 215 227 238 247 249 253 250 249 249 255 261 263 266 266 268 272 274 276 278 274 276 275 274 273 273 270 271 268 264 264 263 259 259 259 257 256 253 250 251 251 252
210 213 217 223 235 245 252 254 255 258 259 259 262 267 268 269 270 272 274 277 277 280 276 274 271 270 271 273 271 269 268 264 264 265 261 260 259 257 255 255 249 248 252 253
211 215 221 228 238 246 255 257 259 264 267 268 270 271 273 276 276 276 276 276 277 278 277 272 269 269 271 271 270 268 269 266 265 265 263 259 258 257 255 254 254 253 252 250
212 218 225 231 242 245 254 260 266 266 270 272 273 275 279 282 285 284 283 276 277 275 273 272 270 269 271 272 270 270 270 268 265 263 262 259 258 256 255 254 252 253 251 251
214 218 226 235 246 247 252 262 269 276 279 279 278 283 289 292 296 293 288 282 279 272 270 271 271 270 271 272 270 269 271 268 266 262 259 257 258 257 255 254 253 253 254 254
219 219 227 243 251 254 258 265 274 280 283 284 283 286 293 299 303 299 291 285 280 278 269 269 269 270 272 272 272 271 270 269 268 266 263 260 260 258 255 253 255 255 258 257
223 225 230 246 249 257 263 265 270 275 282 284 288 289 296 303 309 306 300 294 285 282 273 270 269 268 273 275 273 272 269 269 268 266 266 264 263 261 260 258 256 256 259 257
230 235 238 246 252 261 264 268 271 274 283 289 293 294 301 305 308 308 303 302 298 290 279 273 272 271 273 273 274 273 271 270 268 265 264 262 262 261 259 259 259 258 258 260
231 240 243 248 257 264 263 267 271 276 283 291 296 301 303 305 309 309 305 301 302 293 282 279 276 274 272 270 272 272 270 268 265 262 261 259 258 257 256 256 257 258 259 261
228 239 247 250 257 263 267 272 276 280 282 288 296 302 303 305 311 310 308 302 299 292 285 281 279 277 273 271 272 273 270 267 264 262 258 256 253 254 255 255 256 257 257 260
233 237 246 251 257 261 265 270 274 279 285 295 301 302 303 306 310 310 307 305 299 292 288 285 281 278 275 272 271 272 268 265 263 260 256 253 253 255 256 255 256 258 259 259
238 239 247 253 258 258 261 268 279 286 292 298 301 301 303 306 309 309 305 304 298 294 292 288 284 279 274 272 271 269 266 264 263 259 255 253 254 256 256 255 257 259 260 260
238 244 249 254 255 260 266 274 282 289 295 300 300 301 305 309 309 309 307 304 298 294 291 288 284 278 275 273 270 268 266 264 260 258 258 258 258 256 255 256 259 260 260 260
241 244 247 247 252 260 271 280 286 292 295 301 305 308 308 306 305 304 304 303 300 295 292 288 282 278 276 274 269 266 265 262 259 258 257 260 261 260 259 260 261 261 262 263
234 241 245 244 254 263 275 280 286 294 298 307 311 311 310 307 305 306 306 304 301 297 294 289 283 279 276 273 267 263 259 256 258 259 257 256 255 258 258 258 259 259 261 264
227 235 244 250 256 262 273 283 290 297 303 309 311 311 310 309 307 308 307 305 301 299 295 288 282 279 275 269 264 258 253 255 259 258 255 253 251 251 252 254 254 258 259 259
222 228 234 243 256 271 279 284 292 304 310 315 315 314 316 314 312 313 312 310 306 303 296 287 280 271 265 260 254 251 254 253 255 255 252 249 248 249 249 252 256 257 257 259
219 222 229 238 257 279 289 299 302 310 319 322 321 320 320 321 320 320 319 314 310 304 295 286 276 263 254 252 249 248 248 248 250 250 247 247 247 247 251 254 257 259 259 259
214 216 224 234 249 281 304 311 317 320 324 327 327 327 325 325 325 325 323 320 316 307 293 285 272 254 243 242 237 232 231 232 236 236 234 239 248 253 257 259 261 262 260 261
215 216 219 222 245 273 299 317 323 327 329 331 331 332 330 329 330 330 330 330 328 323 305 280 267 234 223 216 209 207 205 211 222 226 230 243 254 257 260 267 267 268 268 267
212 213 218 227 234 262 295 320 331 336 338 340 339 341 342 339 339 340 343 346 346 346 336 309 249 218 200 195 196 194 192 203 218 220 232 245 254 265 274 279 277 274 270 270
207 210 210 207 221 238 321 333 343 347 349 350 352 355 357 357 356 356 358 1 4 1 355 358 212 188 180 183 195 192 196 215 216 212 217 224 261 311 317 307 302 292 288 290
184 186 191 181 173 263 353 0 359 0 1 2 7 10 11 12 13 12 15 20 23 26 33 48 86 124 140 149 161 170 177 173 160 162 157 147 91 25 18 13 13 10 343 336
Height
5803 5806 5808 5809 5810 5812 5813 5814 5815 5815 5816 5816 5815 5815 5816 5816 5815 5815 5815 5815 5815 5815 5814 5814 5813 5812 5811 5811 5812 5814 5814 5814 5815 5816 5816 5816 5818 5819 5819 5820 5821 5822 5823 5823
5801 5803 5804 5805 5807 5808 5809 5810 5811 5812 5812 5812 5812 5811 5812 5811 5811 5810 5810 5810 5809 5809 5808 5807 5806 5805 5805 5803 5804 5806 5807 5807 5808 5810 5810 5811 5810 5811 5813 5814 5815 5816 5817 5818
5797 5800 5800 5802 5803 5805 5806 5807 5807 5808 5808 5808 5808 5808 5807 5807 5806 5805 5804 5804 5803 5802 5801 5801 5800 5799 5799 5798 5798 5799 5799 5801 5802 5803 5803 5804 5803 5804 5806 5807 5808 5809 5811 5813
5794 5795 5797 5798 5799 5801 5802 5803 5803 5803 5804 5804 5804 5802 5802 5801 5800 5799 5798 5797 5796 5795 5795 5794 5793 5792 5792 5791 5791 5792 5792 5793 5794 5795 5796 5797 5798 5799 5801 5802 5803 5804 5806 5807
5791 5792 5793 5794 5796 5797 5798 5799 5799 5799 5799 5799 5799 5798 5798 5796 5795 5794 5792 5791 5790 5789 5788 5787 5786 5786 5785 5785 5784 5785 5786 5787 5787 5788 5789 5791 5792 5794 5796 5797 5799 5800 5801 5802
5788 5789 5790 5791 5792 5794 5794 5795 5795 5795 5795 5795 5795 5793 5792 5790 5789 5788 5785 5784 5783 5782 5781 5780 5779 5779 5779 5778 5778 5779 5781 5781 5782 5782 5784 5785 5787 5788 5790 5792 5794 5795 5796 5798
5785 5786 5787 5788 5789 5790 5790 5791 5791 5791 5790 5790 5789 5788 5787 5786 5784 5781 5779 5777 5776 5775 5775 5774 5773 5773 5773 5773 5773 5774 5775 5775 5776 5777 5778 5779 5781 5783 5785 5787 5789 5790 5791 5792
5782 5784 5784 5785 5785 5786 5787 5787 5787 5787 5786 5785 5784 5783 5783 5780 5778 5775 5773 5772 5771 5769 5768 5768 5768 5767 5768 5767 5767 5768 5768 5769 5770 5771 5772 5774 5775 5777 5779 5781 5783 5784 5785 5787
5778 5780 5781 5781 5782 5783 5783 5783 5783 5783 5781 5780 5780 5779 5777 5775 5773 5770 5768 5766 5765 5764 5763 5763 5763 5763 5762 5762 5762 5762 5763 5764 5764 5765 5766 5767 5769 5771 5772 5774 5776 5778 5779 5781
5774 5776 5778 5778 5779 5779 5780 5779 5779 5779 5777 5776 5776 5774 5773 5771 5768 5765 5763 5761 5760 5759 5759 5759 5758 5758 5758 5757 5757 5757 5757 5758 5759 5760 5761 5762 5764 5765 5767 5769 5770 5771 5774 5775
5771 5773 5775 5775 5775 5775 5776 5776 5775 5774 5773 5772 5771 5772 5769 5767 5764 5762 5760 5759 5757 5755 5754 5754 5754 5754 5753 5753 5752 5752 5752 5752 5753 5754 5755 5757 5758 5760 5761 5763 5764 5766 5767 5769
5767 5769 5771 5772 5772 5772 5772 5771 5771 5771 5770 5768 5766 5768 5764 5762 5760 5757 5756 5755 5753 5751 5750 5750 5749 5748 5748 5748 5747 5747 5747 5747 5748 5749 5750 5751 5752 5754 5755 5757 5758 5760 5761 5763
5764 5767 5768 5769 5771 5770 5769 5768 5767 5767 5766 5764 5762 5764 5760 5758 5755 5753 5752 5750 5749 5748 5747 5746 5744 5743 5743 5743 5742 5742 5742 5743 5743 5744 5744 5745 5747 5748 5750 5751 5752 5754 5755 5756
5761 5763 5765 5766 5766 5765 5765 5765 5764 5763 5762 5760 5759 5757 5755 5753 5752 5750 5748 5745 5744 5743 5742 5741 5739 5738 5738 5737 5737 5737 5737 5737 5738 5738 5739 5740 5741 5743 5744 5745 5747 5748 5749 5750
5758 5760 5761 5761 5761 5761 5762 5762 5761 5759 5758 5757 5755 5753 5752 5749 5748 5746 5744 5742 5740 5738 5737 5735 5734 5733 5732 5732 5731 5731 5731 5732 5732 5733 5734 5734 5736 5737 5738 5740 5741 5742 5743 5743
5755 5757 5757 5758 5758 5758 5759 5758 5757 5756 5755 5753 5751 5749 5747 5745 5743 5741 5739 5737 5735 5733 5731 5729 5728 5727 5726 5726 5725 5725 5725 5726 5727 5727 5728 5729 5730 5731 5733 5734 5735 5736 5736 5737
5752 5753 5754 5755 5755 5755 5756 5755 5754 5752 5751 5749 5747 5746 5743 5741 5738 5736 5734 5731 5729 5727 5725 5723 5722 5721 5720 5719 5719 5719 5720 5720 5721 5722 5723 5724 5725 5726 5727 5728 5729 5729 5730 5731
5748 5750 5751 5752 5753 5753 5755 5751 5750 5749 5747 5746 5743 5741 5738 5736 5733 5730 5728 5726 5723 5721 5719 5717 5716 5715 5714 5713 5713 5714 5714 5715 5716 5717 5718 5719 5720 5721 5721 5722 5723 5724 5725 5726
5744 5746 5748 5749 5749 5750 5750 5749 5747 5746 5744 5742 5740 5737 5734 5731 5728 5725 5723 5720 5718 5716 5714 5712 5710 5709 5709 5708 5709 5709 5710 5711 5711 5712 5713 5714 5715 5716 5717 5718 5719 5719 5720 5721
5741 5743 5745 5746 5746 5746 5748 5746 5744 5744 5741 5739 5735 5732 5729 5726 5724 5722 5718 5715 5713 5710 5708 5706 5705 5705 5705 5705 5705 5706 5706 5707 5707 5708 5709 5710 5711 5712 5713 5714 5714 5715 5715 5716
5738 5740 5742 5743 5743 5744 5744 5742 5741 5741 5739 5735 5731 5728 5725 5722 5720 5718 5714 5711 5708 5706 5704 5703 5702 5701 5701 5702 5702 5703 5703 5704 5705 5705 5706 5706 5707 5708 5709 5710 5710 5710 5710 5711
5736 5737 5739 5740 5741 5743 5741 5739 5739 5738 5734 5731 5728 5724 5721 5719 5716 5713 5710 5707 5704 5702 5700 5700 5699 5699 5699 5700 5700 5701 5701 5702 5702 5703 5703 5704 5705 5705 5706 5706 5706 5706 5707 5707
5733 5735 5736 5738 5740 5739 5738 5737 5736 5734 5731 5728 5725 5722 5719 5716 5713 5710 5707 5704 5702 5699 5698 5697 5697 5697 5698 5698 5699 5700 5700 5700 5701 5701 5702 5702 5703 5703 5704 5704 5704 5703 5703 5703
5731 5733 5734 5735 5736 5736 5736 5735 5733 5731 5728 5725 5722 5719 5716 5713 5710 5707 5705 5702 5700 5698 5697 5696 5696 5696 5696 5697 5698 5698 5699 5700 5700 5700 5701 5701 5702 5702 5702 5702 5701 5701 5701 5700
5729 5731 5732 5733 5734 5734 5733 5732 5730 5729 5726 5723 5720 5717 5715 5712 5709 5706 5703 5701 5699 5697 5696 5695 5695 5695 5695 5696 5697 5698 5698 5699 5699 5700 5700 5701 5701 5701 5701 5700 5700 5699 5699 5699
5727 5729 5730 5731 5732 5732 5731 5730 5729 5727 5725 5722 5720 5717 5714 5711 5708 5705 5703 5701 5699 5697 5696 5695 5694 5694 5695 5696 5696 5697 5698 5698 5699 5699 5700 5700 5700 5700 5700 5699 5699 5699 5698 5698